Regional Weather Roundup
Issued by NWS Portland, ME

Current Version | Previous Version | Text Only | Print | Product List | Glossary Off
Versions: 1 2 3 4 5 6 7 8 9 10 11 12 13 14 15 16 17 18 19 20 21 22 23 24 25 26 27 28 29 30 31 32 33 34 35 36 37 38 39 40 41 42 43 44 45 46 47 48 49 50

000
ASUS41 KGYX 250105
RWRGYX
WEATHER ROUNDUP FOR MAINE AND NEW HAMPSHIRE
NATIONAL WEATHER SERVICE GRAY ME
900 PM EDT FRI OCT 24 2014

MEZ002-005-006-010-012-015-018-020-021-024-026-027-029-250200-
MAINE

CITY           SKY/WX    TMP DP  RH WIND       PRES   REMARKS
PORTLAND       CLOUDY    51  43  74 NW7       29.71R
SANFORD        CLOUDY    48  41  76 W3        29.72R
BAR HARBOR     CLOUDY    45  45 100 N10       29.64R
WISCASSET      CLOUDY    48  43  82 CALM      29.71R
ROCKLAND       CLOUDY    46  45  93 NW5       29.66S
FRYEBURG       CLOUDY    47  44  90 CALM      29.72R
LEWISTONAUBURN CLOUDY    48  39  71 NW8       29.70S
AUGUSTA        CLOUDY    47  40  76 N12       29.70R
WATERVILLE     CLOUDY    46  39  76 N12G18    29.67R
BANGOR         LGT RAIN  44  41  89 N16G23    29.68R
GREENVILLE     NOT AVBL
MILLINOCKET    CLOUDY    44  40  85 N10G17    29.69S
HOULTON        CLOUDY    41  39  93 N10       29.65S
PRESQUE ISLE   CLOUDY    43  37  81 N9        29.68S
FRENCHVILLE    LGT RAIN  38  36  92 N10       29.70F
CARIBOU        LGT RAIN  42  39  89 N9        29.67F
$$

NHZ002-005-008-009-011-012-014-250200-
NEW HAMPSHIRE

CITY           SKY/WX    TMP DP  RH WIND       PRES   REMARKS
PORTSMOUTH     CLOUDY    49  43  80 W6        29.71R
ROCHESTER      CLOUDY    48  42  80 CALM      29.72R
NASHUA         CLOUDY    49  41  74 NW8       29.76R
MANCHESTER     MOCLDY    48  39  71 NW9       29.73R
CONCORD        CLOUDY    46  40  79 W7        29.75R
LACONIA        PTCLDY    46  39  76 W7        29.71S
PLYMOUTH       CLOUDY    47  44  91 W9G16     29.74S
BERLIN         CLOUDY    44  39  82 NW6       29.78R
WHITEFIELD     LGT RAIN  44  40  85 VRB7      29.79S
JAFFREY        CLOUDY    46  39  76 VRB5      29.76R
LEBANON        CLOUDY    48  40  73 N7        29.79R
MT WASHINGTON  FOG       34  34 100 N33G44      N/A  VSB 1/16WCI  19
$$

VTZ005-007-008-250200-
VERMONT

CITY           SKY/WX    TMP DP  RH WIND       PRES   REMARKS
ST JOHNSBURY     N/A     45  40  82 MISG      29.80R
MONTPELIER     CLOUDY    43  39  86 NW3       29.85S
BURLINGTON     CLOUDY    44  40  85 CALM      29.85R
$$

MAZ007-012-024-CTZ003-RIZ002-NYZ038-NYZ072-250200-
SOUTHERN NEW ENGLAND AND NY

CITY           SKY/WX    TMP DP  RH WIND       PRES   REMARKS
BOSTON         CLOUDY    49  41  74 NW15      29.74R
WORCESTER      CLOUDY    46  40  79 NW14G22   29.75R
NANTUCKET      CLOUDY    53  46  77 NW15      29.71S
PROVIDENCE     CLOUDY    51  41  68 NW8       29.76S
HARTFORD       PTCLDY    51  42  71 N9        29.76F
ALBANY         CLOUDY    47  44  90 NW6       29.87R
NEW YORK CITY  MOCLDY    57  46  66 S7        29.81R
$$

ANZ081-ANZ082-ANZ150-NHZ014-MEZ023>029-250200-
COASTAL MARINE OBSERVATIONS

STATION/POSITION TIME  TEMP    WIND        PRES    WAVE
                       AIR SEA DIR/SP/G            HT/PER
                 (UTC) (F)     (DEG/KT/KT) (MB)    (FT/S)
MOUNT DESERT ROC 0100   47                 1002.7R
MATINICUS ROCK   0000          340/ 22/ 23 1003.3R
PORTLAND WX BUOY 0050   51 53  340/ 16/ 17 1005.4R   4/11
WELLS            0000   51 51  340/  6/  8 1005.0S
ISLE OF SHOALS   0000   50     300/ 14/ 15 1005.3R
JEFFREYS LEDGE   0021      56                N/A     6/ 9
CASHES LEDGE BUO 0050   50 54  330/ 19/ 23 1003.7R   7/ 5
$$

.............KEY..............
   WCI - WIND CHILL
   TC  - TEMPERATURE IN CELSIUS
   VSB - VISIBILITY IN MILES
   HX  - HEAT INDEX
   FAIR- INDICATES FEW OR NO CLOUDS BELOW 12,000 FT, WITH NO
         SIGNIFICANT WEATHER AND/OR OBSTRUCTIONS TO VISIBILITY.





USA.gov is the U.S. government's official web portal to all federal, state and local government web resources and services.